Regional Weather Roundup
Issued by NWS

Home | Current Version | Previous Version | Text Only | Print | Product List | Glossary Off
Versions: 1 2 3 4 5 6 7 8 9 10 11 12 13 14 15 16 17 18 19 20 21 22 23 24 25 26 27

000
ASUS45 KBOU 260307
RWRCO

WEATHER ROUNDUP FOR COLORADO
NATIONAL WEATHER SERVICE DENVER/BOULDER CO
900 PM MDT SAT MAR 25 2017

NOTE: "FAIR" INDICATES FEW OR NO CLOUDS BELOW 12000 FEET WITH NO
SIGNIFICANT WEATHER AND/OR OBSTRUCTIONS TO VISIBILITY.

COZ001>005-013-030-031-260400-
...NORTHWEST COLORADO...

CITY           SKY/WX    TMP DP  RH WIND       PRES   REMARKS
CRAIG          MOCLDY    43  33  68 S5        29.91R
HAYDEN         CLOUDY    45  28  53 W15       29.93R
MEEKER         CLOUDY    46  33  60 E10       29.91R
MOUNT WERNER   NOT AVBL
STEAMBOAT SPGS CLOUDY    42  34  73 W12G22    29.94R
WALDEN         NOT AVBL
$$

COZ006>008-011-260400-
...WEST CENTRAL VALLEYS...

CITY           SKY/WX    TMP DP  RH WIND       PRES   REMARKS
GRAND JUNCTION CLOUDY    50  41  71 E7        29.87S
MONTROSE       CLOUDY    50  30  46 W10       29.92R
EAGLE          CLOUDY    48  28  46 W18G26    29.94R
RIFLE          MOCLDY    48  35  60 NE7       29.92R
DELTA          FAIR      53  32  44 NW5       29.90R
NUCLA          LGT RAIN  43  37  81 E3        29.99R
$$

COZ017>023-064>068-260400-
...SOUTHWEST COLORADO...

CITY           SKY/WX    TMP DP  RH WIND       PRES   REMARKS
DURANGO        FAIR      41  34  76 NW15G28   29.93R
CORTEZ         LGT RAIN  40  38  93 W13       29.99R
PAGOSA SPRINGS CLOUDY    47  25  42 S18G29    29.93R
TELLURIDE      CLOUDY    36  30  77 W18G25    29.99
WOLF CREEK PAS MOCLDY    28  14  54 S12G17    30.08F WCI  18
$$

COZ009-010-012-014-032>034-037-058>063-260400-
...CENTRAL COLORADO...

CITY           SKY/WX    TMP DP  RH WIND       PRES   REMARKS
ASPEN          LGT RAIN  42  30  62 MISG      29.94R
BUENA VISTA    MOCLDY    44  30  58 CALM      29.93R
COPPER MTN     SNOW      30  27  86 W3        30.05S VSB 1/2
BERTHOUD PASS  HVY SNOW  21  12  68 W12       30.06S VSB<1/4 WCI   9
COTTONWOOD PAS FAIR      37  28  70 W13G18    29.98S
GUNNISON       FAIR      39  31  72 E5        29.94S
KREMMLING      CLOUDY    50  30  46 SW14G21   29.94R
LEADVILLE      MOCLDY    32  27  81 N12       29.97S WCI  23
MONARCH PASS   FAIR      27  23  86 W21       30.15S WCI  13
SALIDA         MOCLDY    46  32  56 SW5       29.99S
SUNLIGHT       CLOUDY    28  27  93 SW7       30.05R WCI  21
WILKERSON PASS MOCLDY    32  23  69 S5        30.05R WCI  27
$$

COZ069>075-260400-
...SAN LUIS VALLEY/SANGRE DE CRISTO MOUNTAINS...

CITY           SKY/WX    TMP DP  RH WIND       PRES   REMARKS
ALAMOSA        FAIR      41  23  48 S13       29.88S
LA VETA PASS   NOT AVBL
SAGUACHE       FAIR      43  18  36 N8        29.90S
$$

COZ035-036-038>040-260400-
...NORTHERN COLORADO FRONT RANGE...

CITY           SKY/WX    TMP DP  RH WIND       PRES   REMARKS
DENVER INTL AP CLOUDY    48  34  58 SE15      29.83S
DMNS CITY PARK   N/A     51  31  45 E9        29.82S
AURORA         MOCLDY    46  35  64 SE14      29.83S
FRONT RANGE AP MOCLDY    50  36  57 SE14      29.85S
ERIE MUNI ARPT FAIR      52  31  44 CALM      29.83R
BOULDER MUN AP FAIR      50  21  32 NW6       29.83R
CENTENNIAL     CLOUDY    49  32  52 S10       29.83R
BROOMFIELD     MOCLDY    52  25  35 NW3       29.84R
FORT COLLINS   FAIR      53  28  38 E6        29.84S
LONGMONT       CLOUDY    53  27  35 N6        29.85S
$$

COZ041-046-047-076>085-087-088-260400-
...PIKES PEAK/PALMER DIVIDE AND SOUTHERN FOOTHILLS...

CITY           SKY/WX    TMP DP  RH WIND       PRES   REMARKS
COLO. SPRINGS  MOCLDY    46  32  58 SE9       29.88R
A. F. ACADEMY  MOCLDY    45  31  58 SW6       29.87R
SCHRIEVER AFB  MOCLDY    43  32  63 E8        29.89R
ELLICOTT         N/A    N/A N/A N/A E10       29.87S
FALCON         FAIR      41  32  70 S9        29.90S
FORT CARSON    FAIR      47  31  51 S7        29.87R
LIMON          FAIR      42  36  79 E5        29.86F
MONUMENT HILL  FAIR      37  32  81 S6        29.90R
TRINIDAD       FAIR      52  31  44 SE13      29.84R
$$

COZ042>045-048>051-090-091-260400-
...NORTHEAST COLORADO...

CITY           SKY/WX    TMP DP  RH WIND       PRES   REMARKS
GREELEY ARPT   FAIR      52  35  52 E8        29.84S
AKRON          FAIR      45  30  55 S8        29.86S
BURLINGTON     FAIR      43  34  70 E9        29.88S
WRAY           NOT AVBL
STERLING       FAIR      48  34  57 SE6       29.85R
HOLYOKE        FAIR      45  34  65 SE7       29.88R
FORT MORGAN    FAIR      49  31  49 SE10      29.86S
$$

COZ086-089-092>099-260400-
...SOUTHEAST COLORADO...

CITY           SKY/WX    TMP DP  RH WIND       PRES   REMARKS
PUEBLO         FAIR      50  33  52 NE10      29.82R
LA JUNTA       FAIR      53  27  36 E14       29.81R
LAMAR          FAIR      53  18  25 SE13      29.81F
SPRINGFIELD      N/A     51  26  37 SE10      29.85R
$$




USA.gov is the U.S. government's official web portal to all federal, state and local government web resources and services.